Los Alamitos, CA

1:48 PM PST on December 09, 2016 (GMT -0800)
Los Alamitos Army Air Field

Weather History for KSLI - November, 2011

Change the Weather History Date:

Wednesday, November 9, 2011

  Actual Average Record
Temperature  
Mean Temperature 60 °F -  
Max Temperature 75 °F 72 °F 95 °F (2016)
Min Temperature 44 °F 56 °F 44 °F (2011)
Degree Days  
Heating Degree Days 6    
Growing Degree Days 10 (Base 50)    
Moisture  
Dew Point 35 °F    
Average Humidity 46    
Maximum Humidity 77    
Minimum Humidity 12    
Precipitation  
Precipitation 0.00 in - - ()
Sea Level Pressure  
Sea Level Pressure 30.18 in    
Wind  
Wind Speed 6 mph (NNE)    
Max Wind Speed 17 mph    
Max Gust Speed 22 mph    
Visibility 9 miles    
Events      
Averages and records for this station are not official NWS values.
T = Trace of Precipitation, MM = Missing Value Source: NWS Daily Summary

Daily Weather History Graph

Daily Weather History Graph

Search for Another Location

Airport or City:

Trip Planner

Search our weather history database for the weather conditions in past years. The results will help you decide how hot, cold, wet, or windy it might be!

Date:

Astronomy

Nov. 09, 2011 Rise Set
Actual Time 6:18 AM PST 4:53 PM PST
Civil Twilight 5:52 AM PST 5:19 PM PST
Nautical Twilight 5:22 AM PST 5:49 PM PST
Astronomical Twilight 4:53 AM PST 6:18 PM PST
Moon 4:08 PM PST 5:18 AM PST
Length of Visible Light 11h 26m
Length of Day
10h 34m
Waxing Gibbous, 99% of the Moon is Illuminated
Nov 9
Waxing Gibbous
Nov 10
Full
Nov 18
Last Quarter
Nov 24
New
Dec 2
First Quarter

Hourly Weather History & Observations

Time (PST) Temp. Windchill Dew Point Humidity Pressure Visibility Wind Dir Wind Speed Gust Speed Precip Events Conditions
12:55 AM 49.5 °F - 39.6 °F 69% 30.22 in 6.0 mi North 6.9 mph - N/A   Haze
1:55 AM 49.1 °F - 37.9 °F 65% 30.20 in 9.0 mi NNE 3.5 mph - N/A   Clear
2:55 AM 44.8 °F 41.6 °F 37.9 °F 77% 30.20 in 4.0 mi NNW 5.8 mph - N/A   Haze
3:55 AM 45.1 °F - 36.0 °F 70% 30.20 in 10.0 mi Calm Calm - N/A   Clear
4:55 AM 46.9 °F - 36.1 °F 66% 30.20 in 10.0 mi North 8.1 mph - N/A   Clear
5:55 AM 44.2 °F 42.7 °F 36.3 °F 74% 30.22 in 10.0 mi North 3.5 mph - N/A   Clear
6:55 AM 45.5 °F 43.2 °F 36.0 °F 69% 30.24 in 10.0 mi NNE 4.6 mph - N/A   Clear
7:55 AM 57.0 °F - 33.1 °F 40% 30.26 in 10.0 mi NNE 4.6 mph - N/A   Clear
8:55 AM 66.2 °F - 25.5 °F 22% 30.25 in 10.0 mi NNE 11.5 mph - N/A   Clear
9:55 AM 70.9 °F - 19.4 °F 14% 30.23 in 10.0 mi ENE 17.3 mph 21.9 mph N/A   Clear
10:55 AM 73.9 °F - 17.4 °F 12% 30.21 in 10.0 mi East 11.5 mph - N/A   Partly Cloudy
11:55 AM 75.6 °F - 25.2 °F 15% 30.17 in 10.0 mi South 10.4 mph - N/A   Scattered Clouds
12:55 PM 72.7 °F - 31.5 °F 22% 30.15 in 10.0 mi SSW 6.9 mph - N/A   Scattered Clouds
1:55 PM 73.8 °F - 32.5 °F 22% 30.13 in 10.0 mi South 6.9 mph - N/A   Mostly Cloudy
2:55 PM 74.8 °F - 33.3 °F 22% 30.12 in 10.0 mi Calm Calm - N/A   Scattered Clouds
3:55 PM 69.8 °F - 38.3 °F 32% 30.11 in 10.0 mi South 4.6 mph - N/A   Mostly Cloudy
4:55 PM 65.7 °F - 43.2 °F 44% 30.12 in 10.0 mi Calm Calm - N/A   Mostly Cloudy
5:55 PM 61.5 °F - 43.3 °F 51% 30.14 in 10.0 mi Calm Calm - N/A   Mostly Cloudy
6:55 PM 57.6 °F - 43.7 °F 60% 30.16 in 10.0 mi NW 4.6 mph - N/A   Mostly Cloudy
7:55 PM 59.4 °F - 41.4 °F 51% 30.17 in 10.0 mi North 4.6 mph - N/A   Mostly Cloudy
8:55 PM 56.7 °F - 41.5 °F 57% 30.17 in 10.0 mi Calm Calm - N/A   Mostly Cloudy
9:55 PM 53.6 °F - 41.0 °F 62% 30.17 in 10.0 mi Calm Calm - N/A   Scattered Clouds
10:55 PM 50.7 °F - 41.5 °F 71% 30.17 in 6.0 mi Calm Calm - N/A   Haze
11:55 PM 63.3 °F - 20.8 °F 20% 30.15 in 10.0 mi ENE 15.0 mph - N/A   Clear